Time,TemperatureF,DewpointF,PressureIn,WindDirection,WindDirectionDegrees,WindSpeedMPH,WindSpeedGustMPH,Humidity,HourlyPrecipIn,Conditions,Clouds,dailyrainin,SolarRadiationWatts/m^2,SoftwareType,DateUTC
2013-04-24 00:01:00,39.6,36.9,30.07,ESE,107,0.0,0.0,90,0.00,SCT,,0.00,0.0,WeatherDisplay:10.37,2013-04-24 04:01:00,
2013-04-24 00:02:00,39.8,37.1,30.07,ESE,107,0.0,0.0,90,0.00,CLR,,0.00,0.0,WeatherDisplay:10.37,2013-04-24 04:02:00,
2013-04-24 00:07:00,39.9,37.5,30.07,ESE,107,0.0,0.0,91,0.00,CLR,,0.00,0.0,WeatherDisplay:10.37,2013-04-24 04:07:00,
2013-04-24 00:12:00,39.9,37.5,30.07,ESE,107,0.0,0.0,91,0.00,CLR,,0.00,0.0,WeatherDisplay:10.37,2013-04-24 04:12:00,
2013-04-24 00:17:00,40.1,37.7,30.07,ESE,107,0.0,0.0,91,0.00,CLR,,0.00,0.0,WeatherDisplay:10.37,2013-04-24 04:17:00,
2013-04-24 00:22:00,39.9,37.5,30.07,ESE,107,0.0,0.0,91,0.00,CLR,,0.00,0.0,WeatherDisplay:10.37,2013-04-24 04:22:00,
2013-04-24 00:27:00,39.8,37.4,30.07,ESE,107,0.0,0.0,91,0.00,CLR,,0.00,0.0,WeatherDisplay:10.37,2013-04-24 04:27:00,
2013-04-24 00:32:00,39.6,37.2,30.07,ESE,107,0.0,0.0,91,0.00,CLR,,0.00,0.0,WeatherDisplay:10.37,2013-04-24 04:32:00,
2013-04-24 00:37:00,39.8,37.7,30.07,ESE,107,0.0,0.0,92,0.00,CLR,,0.00,0.0,WeatherDisplay:10.37,2013-04-24 04:37:00,
2013-04-24 00:42:00,40.1,38.0,30.07,ESE,107,0.0,0.0,92,0.00,CLR,,0.00,0.0,WeatherDisplay:10.37,2013-04-24 04:42:00,
2013-04-24 00:47:00,40.2,38.1,30.07,ESE,107,0.0,0.0,92,0.00,CLR,,0.00,0.0,WeatherDisplay:10.37,2013-04-24 04:47:00,
2013-04-24 00:52:00,40.6,38.5,30.06,ESE,107,0.0,0.0,92,0.00,CLR,,0.00,0.0,WeatherDisplay:10.37,2013-04-24 04:52:00,
2013-04-24 00:57:00,40.8,38.7,30.07,ESE,107,0.0,0.0,92,0.00,CLR,,0.00,0.0,WeatherDisplay:10.37,2013-04-24 04:57:00,
2013-04-24 01:02:00,41.2,39.1,30.06,ESE,107,0.0,0.0,92,0.00,FEW,,0.00,0.0,WeatherDisplay:10.37,2013-04-24 05:02:00,
2013-04-24 01:07:00,40.9,38.8,30.06,ESE,107,0.0,0.0,92,0.00,FEW,,0.00,0.0,WeatherDisplay:10.37,2013-04-24 05:07:00,
2013-04-24 01:12:00,40.8,38.7,30.06,ESE,107,0.0,0.0,92,0.00,FEW,,0.00,0.0,WeatherDisplay:10.37,2013-04-24 05:12:00,
2013-04-24 01:17:00,41.3,39.2,30.05,ESE,107,0.0,0.0,92,0.00,FEW,,0.00,0.0,WeatherDisplay:10.37,2013-04-24 05:17:00,
2013-04-24 01:22:00,41.8,39.6,30.05,ESE,107,0.0,0.0,92,0.00,FEW,,0.00,0.0,WeatherDisplay:10.37,2013-04-24 05:22:00,
2013-04-24 01:27:00,42.8,40.6,30.05,ESE,107,0.1,1.5,92,0.00,FEW,,0.00,0.0,WeatherDisplay:10.37,2013-04-24 05:27:00,
2013-04-24 01:32:00,42.9,40.7,30.05,ESE,107,0.0,0.0,92,0.00,FEW,,0.00,0.0,WeatherDisplay:10.37,2013-04-24 05:32:00,
2013-04-24 01:37:00,43.9,41.7,30.04,ESE,107,0.1,1.5,92,0.00,FEW,,0.00,0.0,WeatherDisplay:10.37,2013-04-24 05:37:00,
2013-04-24 01:42:00,44.5,42.3,30.05,ESE,107,0.2,1.5,92,0.00,FEW,,0.00,0.0,WeatherDisplay:10.37,2013-04-24 05:42:00,
2013-04-24 01:47:00,45.4,43.2,30.05,ESE,109,0.6,3.5,92,0.00,FEW,,0.00,0.0,WeatherDisplay:10.37,2013-04-24 05:47:00,
2013-04-24 01:52:00,45.7,43.2,30.05,ESE,109,0.0,0.0,91,0.00,FEW,,0.00,0.0,WeatherDisplay:10.37,2013-04-24 05:52:00,
2013-04-24 01:57:00,45.8,43.0,30.05,ESE,109,0.0,0.0,90,0.00,FEW,,0.00,0.0,WeatherDisplay:10.37,2013-04-24 05:57:00,
2013-04-24 02:02:00,46.2,43.1,30.04,ESE,110,0.0,1.5,89,0.00,FEW,,0.00,0.0,WeatherDisplay:10.37,2013-04-24 06:02:00,
2013-04-24 02:07:00,46.5,43.1,30.05,ESE,110,0.0,1.5,88,0.00,FEW,,0.00,0.0,WeatherDisplay:10.37,2013-04-24 06:07:00,
2013-04-24 02:12:00,46.7,43.3,30.04,ESE,121,0.1,1.5,88,0.00,FEW,,0.00,0.0,WeatherDisplay:10.37,2013-04-24 06:12:00,
2013-04-24 02:17:00,46.8,43.1,30.04,SE,130,0.1,1.5,87,0.00,FEW,,0.00,0.0,WeatherDisplay:10.37,2013-04-24 06:17:00,
2013-04-24 02:22:00,47.1,43.1,30.03,SSE,152,1.7,5.8,86,0.00,FEW,,0.00,0.0,WeatherDisplay:10.37,2013-04-24 06:22:00,
2013-04-24 02:27:00,47.4,43.4,30.03,SSE,149,3.0,5.8,86,0.00,FEW,,0.00,0.0,WeatherDisplay:10.37,2013-04-24 06:27:00,
2013-04-24 02:32:00,47.7,43.4,30.03,SSE,149,1.2,3.5,85,0.00,FEW,,0.00,0.0,WeatherDisplay:10.37,2013-04-24 06:32:00,
2013-04-24 02:37:00,47.9,43.3,30.03,SSE,153,0.0,0.0,84,0.00,FEW,,0.00,0.0,WeatherDisplay:10.37,2013-04-24 06:37:00,
2013-04-24 02:42:00,47.9,43.0,30.02,SSE,150,0.4,9.2,83,0.00,FEW,,0.00,0.0,WeatherDisplay:10.37,2013-04-24 06:42:00,
2013-04-24 02:47:00,48.0,43.1,30.02,SSE,151,3.0,4.6,83,0.00,FEW,,0.00,0.0,WeatherDisplay:10.37,2013-04-24 06:47:00,
2013-04-24 02:52:00,48.2,43.3,30.02,SE,136,3.9,5.8,83,0.00,FEW,,0.00,0.0,WeatherDisplay:10.37,2013-04-24 06:52:00,
2013-04-24 02:57:00,48.2,43.0,30.02,SE,137,0.8,3.5,82,0.00,FEW,,0.00,0.0,WeatherDisplay:10.37,2013-04-24 06:57:00,
2013-04-24 03:02:00,48.2,43.0,30.02,SE,140,0.5,3.5,82,0.00,CLR,,0.00,0.0,WeatherDisplay:10.37,2013-04-24 07:02:00,
2013-04-24 03:07:00,48.0,42.8,30.02,SE,137,1.1,4.5,82,0.00,CLR,,0.00,0.0,WeatherDisplay:10.37,2013-04-24 07:07:00,
2013-04-24 03:12:00,48.0,42.4,30.02,SE,137,0.0,1.2,81,0.00,CLR,,0.00,0.0,WeatherDisplay:10.37,2013-04-24 07:12:00,
2013-04-24 03:17:00,48.2,42.6,30.02,SE,137,0.0,0.0,81,0.00,CLR,,0.00,0.0,WeatherDisplay:10.37,2013-04-24 07:17:00,
2013-04-24 03:22:00,48.2,42.6,30.02,SE,137,1.6,3.5,81,0.00,CLR,,0.00,0.0,WeatherDisplay:10.37,2013-04-24 07:22:00,
2013-04-24 03:27:00,48.2,43.0,30.01,SE,137,2.6,4.6,82,0.00,CLR,,0.00,0.0,WeatherDisplay:10.37,2013-04-24 07:27:00,
2013-04-24 03:32:00,48.5,43.3,30.01,ESE,119,1.8,6.0,82,0.00,CLR,,0.00,0.0,WeatherDisplay:10.37,2013-04-24 07:32:00,
2013-04-24 03:37:00,48.6,43.0,30.00,ESE,117,1.0,3.5,81,0.00,CLR,,0.00,0.0,WeatherDisplay:10.37,2013-04-24 07:37:00,
2013-04-24 03:42:00,48.8,43.2,30.00,SE,129,0.0,0.0,81,0.00,CLR,,0.00,0.0,WeatherDisplay:10.37,2013-04-24 07:42:00,
2013-04-24 03:47:00,48.9,43.3,30.01,SSE,151,2.6,7.5,81,0.00,CLR,,0.00,0.0,WeatherDisplay:10.37,2013-04-24 07:47:00,
2013-04-24 03:52:00,49.1,43.5,30.00,SSE,152,2.2,5.8,81,0.00,CLR,,0.00,0.0,WeatherDisplay:10.37,2013-04-24 07:52:00,
2013-04-24 03:57:00,48.9,43.0,30.00,SE,144,4.9,8.1,80,0.00,CLR,,0.00,0.0,WeatherDisplay:10.37,2013-04-24 07:57:00,
2013-04-24 04:02:00,48.9,43.0,30.00,South,184,5.3,8.1,80,0.00,FEW,,0.00,0.0,WeatherDisplay:10.37,2013-04-24 08:02:00,
2013-04-24 04:07:00,48.8,42.9,30.01,South,177,2.3,5.8,80,0.00,FEW,,0.00,0.0,WeatherDisplay:10.37,2013-04-24 08:07:00,
2013-04-24 04:12:00,48.6,42.7,30.00,South,175,0.0,0.0,80,0.00,FEW,,0.00,0.0,WeatherDisplay:10.37,2013-04-24 08:12:00,
2013-04-24 04:17:00,48.2,42.3,30.00,South,175,0.0,0.0,80,0.00,FEW,,0.00,0.0,WeatherDisplay:10.37,2013-04-24 08:17:00,
2013-04-24 04:22:00,47.7,41.8,30.00,South,175,0.0,1.5,80,0.00,FEW,,0.00,0.0,WeatherDisplay:10.37,2013-04-24 08:22:00,
2013-04-24 04:27:00,47.4,41.9,30.00,South,175,0.9,3.5,81,0.00,FEW,,0.00,0.0,WeatherDisplay:10.37,2013-04-24 08:27:00,
2013-04-24 04:32:00,47.3,42.1,30.00,South,175,0.0,1.2,82,0.00,FEW,,0.00,0.0,WeatherDisplay:10.37,2013-04-24 08:32:00,
2013-04-24 04:37:00,47.3,42.1,30.00,SSE,163,3.2,9.0,82,0.00,FEW,,0.00,0.0,WeatherDisplay:10.37,2013-04-24 08:37:00,
2013-04-24 04:42:00,47.7,42.8,30.00,SSE,154,1.6,7.5,83,0.00,FEW,,0.00,0.0,WeatherDisplay:10.37,2013-04-24 08:42:00,
2013-04-24 04:47:00,47.9,43.0,30.00,SSE,154,4.0,9.2,83,0.00,FEW,,0.00,0.0,WeatherDisplay:10.37,2013-04-24 08:47:00,
2013-04-24 04:52:00,48.0,43.1,30.00,SSE,154,0.5,10.4,83,0.00,FEW,,0.00,0.0,WeatherDisplay:10.37,2013-04-24 08:52:00,
2013-04-24 04:57:00,48.0,43.1,30.00,SE,146,1.4,8.1,83,0.00,FEW,,0.00,0.0,WeatherDisplay:10.37,2013-04-24 08:57:00,
2013-04-24 05:02:00,47.7,42.8,30.00,SE,133,0.5,4.6,83,0.00,FEW,,0.00,0.0,WeatherDisplay:10.37,2013-04-24 09:02:00,
2013-04-24 05:07:00,47.7,42.8,30.00,SE,136,2.2,6.0,83,0.00,FEW,,0.00,0.0,WeatherDisplay:10.37,2013-04-24 09:07:00,
2013-04-24 05:12:00,47.6,42.7,30.00,SSE,155,0.8,8.1,83,0.00,FEW,,0.00,0.0,WeatherDisplay:10.37,2013-04-24 09:12:00,
2013-04-24 05:17:00,47.4,42.5,30.00,SSE,159,3.4,9.2,83,0.00,FEW,,0.00,0.0,WeatherDisplay:10.37,2013-04-24 09:17:00,
2013-04-24 05:22:00,47.4,42.5,30.00,SSE,156,0.4,1.2,83,0.00,FEW,,0.00,0.0,WeatherDisplay:10.37,2013-04-24 09:22:00,
2013-04-24 05:27:00,47.3,42.7,30.00,SSE,156,0.1,1.2,84,0.00,FEW,,0.00,0.0,WeatherDisplay:10.37,2013-04-24 09:27:00,
2013-04-24 05:32:00,47.3,42.7,30.00,SSE,156,0.8,3.0,84,0.00,FEW,,0.00,0.0,WeatherDisplay:10.37,2013-04-24 09:32:00,
2013-04-24 05:37:00,47.4,42.8,30.00,SSE,153,0.0,3.5,84,0.00,FEW,,0.00,0.0,WeatherDisplay:10.37,2013-04-24 09:37:00,
2013-04-24 05:42:00,47.3,42.7,30.00,SSE,153,0.0,0.0,84,0.00,FEW,,0.00,0.0,WeatherDisplay:10.37,2013-04-24 09:42:00,
2013-04-24 05:47:00,47.1,42.5,30.00,SSE,153,0.2,0.0,84,0.00,FEW,,0.00,0.0,WeatherDisplay:10.37,2013-04-24 09:47:00,
2013-04-24 05:52:00,47.3,43.0,30.00,SSE,153,0.0,4.6,85,0.00,FEW,,0.00,0.0,WeatherDisplay:10.37,2013-04-24 09:52:00,
2013-04-24 05:57:00,47.1,42.8,30.00,SSE,153,0.7,4.6,85,0.00,FEW,,0.00,0.0,WeatherDisplay:10.37,2013-04-24 09:57:00,
2013-04-24 06:02:00,47.1,42.8,30.00,SE,142,0.1,3.5,85,0.00,CLR,,0.00,0.0,WeatherDisplay:10.37,2013-04-24 10:02:00,
2013-04-24 06:07:00,47.3,43.0,30.00,ESE,123,2.9,4.5,85,0.00,CLR,,0.00,0.0,WeatherDisplay:10.37,2013-04-24 10:07:00,
2013-04-24 06:12:00,47.3,43.0,30.00,SE,124,0.0,1.2,85,0.00,CLR,,0.00,0.0,WeatherDisplay:10.37,2013-04-24 10:12:00,
2013-04-24 06:17:00,47.3,43.0,30.00,ESE,123,0.2,1.5,85,0.00,CLR,,0.00,0.0,WeatherDisplay:10.37,2013-04-24 10:17:00,
2013-04-24 06:22:00,47.1,42.8,30.00,ESE,114,3.8,5.8,85,0.00,CLR,,0.00,0.0,WeatherDisplay:10.37,2013-04-24 10:22:00,
2013-04-24 06:27:00,47.0,42.7,30.00,ESE,123,2.0,6.0,85,0.00,CLR,,0.00,7.0,WeatherDisplay:10.37,2013-04-24 10:27:00,
2013-04-24 06:32:00,47.0,43.0,30.00,SSE,155,0.9,3.5,86,0.00,CLR,,0.00,11.0,WeatherDisplay:10.37,2013-04-24 10:32:00,
2013-04-24 06:37:00,47.0,43.0,30.00,SSE,151,0.0,3.5,86,0.00,CLR,,0.00,14.0,WeatherDisplay:10.37,2013-04-24 10:37:00,
2013-04-24 06:42:00,46.8,42.8,30.00,SSE,151,0.1,3.0,86,0.00,CLR,,0.00,18.0,WeatherDisplay:10.37,2013-04-24 10:42:00,
2013-04-24 06:47:00,47.0,43.0,30.00,SSE,151,0.0,0.0,86,0.00,CLR,,0.00,23.0,WeatherDisplay:10.37,2013-04-24 10:47:00,
2013-04-24 06:52:00,47.0,43.0,30.00,SSE,151,1.5,3.5,86,0.00,CLR,,0.00,28.0,WeatherDisplay:10.37,2013-04-24 10:52:00,
2013-04-24 06:57:00,47.0,43.0,30.00,SE,146,2.8,6.0,86,0.00,CLR,,0.00,33.0,WeatherDisplay:10.37,2013-04-24 10:57:00,
2013-04-24 07:02:00,47.3,43.6,30.00,SSE,150,2.2,6.0,87,0.00,FEW,,0.00,54.0,WeatherDisplay:10.37,2013-04-24 11:02:00,
2013-04-24 07:07:00,47.7,44.0,30.00,SSE,149,1.8,4.6,87,0.00,FEW,,0.00,69.0,WeatherDisplay:10.37,2013-04-24 11:07:00,
2013-04-24 07:12:00,48.2,44.2,30.00,SSE,150,3.4,4.6,86,0.00,FEW,,0.00,83.0,WeatherDisplay:10.37,2013-04-24 11:12:00,
2013-04-24 07:17:00,48.5,44.5,30.00,SSE,150,1.0,4.6,86,0.00,FEW,,0.00,100.0,WeatherDisplay:10.37,2013-04-24 11:17:00,
2013-04-24 07:22:00,48.8,44.8,29.99,SSE,150,0.1,1.2,86,0.00,FEW,,0.00,118.0,WeatherDisplay:10.37,2013-04-24 11:22:00,
2013-04-24 07:27:00,49.4,45.1,29.99,SSE,149,0.0,0.0,85,0.00,FEW,,0.00,135.0,WeatherDisplay:10.37,2013-04-24 11:27:00,
2013-04-24 07:32:00,49.8,45.5,29.99,SSE,149,1.6,4.6,85,0.00,FEW,,0.00,151.0,WeatherDisplay:10.37,2013-04-24 11:32:00,
2013-04-24 07:37:00,50.2,45.6,29.99,SSE,150,0.1,1.5,84,0.00,FEW,,0.00,171.0,WeatherDisplay:10.37,2013-04-24 11:37:00,
2013-04-24 07:42:00,50.8,45.8,29.99,SSE,149,0.2,1.5,83,0.00,FEW,,0.00,192.0,WeatherDisplay:10.37,2013-04-24 11:42:00,
2013-04-24 07:47:00,51.3,46.0,29.99,SSE,148,2.4,4.6,82,0.00,FEW,,0.00,213.0,WeatherDisplay:10.37,2013-04-24 11:47:00,
2013-04-24 07:52:00,51.4,45.4,29.99,SSE,149,3.8,5.8,80,0.00,FEW,,0.00,234.0,WeatherDisplay:10.37,2013-04-24 11:52:00,
2013-04-24 07:57:00,52.0,46.0,29.99,SE,146,1.6,4.6,80,0.00,FEW,,0.00,255.0,WeatherDisplay:10.37,2013-04-24 11:57:00,
2013-04-24 08:02:00,52.3,46.0,29.99,SE,146,3.7,5.8,79,0.00,BKN,,0.00,271.0,WeatherDisplay:10.37,2013-04-24 12:02:00,
2013-04-24 08:07:00,52.5,46.2,29.99,SSE,163,3.7,5.8,79,0.00,BKN,,0.00,271.0,WeatherDisplay:10.37,2013-04-24 12:07:00,
2013-04-24 08:12:00,52.9,46.2,29.99,SSE,163,3.7,5.8,78,0.00,BKN,,0.00,271.0,WeatherDisplay:10.37,2013-04-24 12:12:00,
2013-04-24 08:17:00,52.8,45.8,29.99,ESE,103,3.0,6.0,77,0.00,BKN,,0.00,304.0,WeatherDisplay:10.37,2013-04-24 12:17:00,
2013-04-24 08:22:00,52.5,45.5,29.99,SE,132,6.2,8.1,77,0.00,BKN,,0.00,325.0,WeatherDisplay:10.37,2013-04-24 12:22:00,
2013-04-24 08:27:00,52.8,46.1,29.99,ESE,123,3.5,8.1,78,0.00,BKN,,0.00,352.0,WeatherDisplay:10.37,2013-04-24 12:27:00,
2013-04-24 08:32:00,53.2,46.2,29.99,ESE,111,7.0,9.0,77,0.00,BKN,,0.00,369.0,WeatherDisplay:10.37,2013-04-24 12:32:00,
2013-04-24 08:37:00,53.3,46.3,29.99,SSE,161,2.4,4.6,77,0.00,BKN,,0.00,383.0,WeatherDisplay:10.37,2013-04-24 12:37:00,
2013-04-24 08:42:00,53.9,46.9,29.99,SSE,159,2.6,5.8,77,0.00,BKN,,0.00,396.0,WeatherDisplay:10.37,2013-04-24 12:42:00,
2013-04-24 08:47:00,54.2,46.8,29.99,ESE,117,2.0,5.8,76,0.00,BKN,,0.00,411.0,WeatherDisplay:10.37,2013-04-24 12:47:00,
2013-04-24 08:52:00,54.7,47.3,29.98,SSE,154,4.4,10.5,76,0.00,BKN,,0.00,434.0,WeatherDisplay:10.37,2013-04-24 12:52:00,
2013-04-24 08:57:00,55.1,47.3,29.98,SE,141,1.6,4.5,75,0.00,BKN,,0.00,448.0,WeatherDisplay:10.37,2013-04-24 12:57:00,
2013-04-24 09:02:00,55.4,47.2,29.98,SSE,167,5.7,9.2,74,0.00,BKN,,0.00,454.0,WeatherDisplay:10.37,2013-04-24 13:02:00,
2013-04-24 09:07:00,55.4,46.9,29.98,SSE,162,6.0,10.4,73,0.00,BKN,,0.00,487.0,WeatherDisplay:10.37,2013-04-24 13:07:00,
2013-04-24 09:12:00,56.2,48.0,29.97,SSE,158,6.0,9.0,74,0.00,BKN,,0.00,515.0,WeatherDisplay:10.37,2013-04-24 13:12:00,
2013-04-24 09:17:00,56.5,47.6,29.97,SSE,163,8.8,9.0,72,0.00,BKN,,0.00,496.0,WeatherDisplay:10.37,2013-04-24 13:17:00,
2013-04-24 09:22:00,57.0,48.4,29.96,ESE,112,5.6,7.5,73,0.00,BKN,,0.00,515.0,WeatherDisplay:10.37,2013-04-24 13:22:00,
2013-04-24 09:27:00,57.3,48.7,29.96,SSE,165,6.7,9.2,73,0.00,BKN,,0.00,571.0,WeatherDisplay:10.37,2013-04-24 13:27:00,
2013-04-24 09:32:00,57.6,49.0,29.95,SSE,157,4.0,7.5,73,0.00,BKN,,0.00,568.0,WeatherDisplay:10.37,2013-04-24 13:32:00,
2013-04-24 09:37:00,58.1,49.1,29.95,SE,144,4.1,9.2,72,0.00,BKN,,0.00,550.0,WeatherDisplay:10.37,2013-04-24 13:37:00,
2013-04-24 09:42:00,58.6,49.2,29.95,SSE,155,7.3,10.5,71,0.00,BKN,,0.00,577.0,WeatherDisplay:10.37,2013-04-24 13:42:00,
2013-04-24 09:47:00,58.7,48.6,29.94,SE,140,5.6,9.2,69,0.00,BKN,,0.00,591.0,WeatherDisplay:10.37,2013-04-24 13:47:00,
2013-04-24 09:52:00,58.9,49.1,29.94,SSE,156,6.7,9.2,70,0.00,BKN,,0.00,573.0,WeatherDisplay:10.37,2013-04-24 13:52:00,
2013-04-24 09:57:00,58.9,49.1,29.94,SE,134,7.0,9.2,70,0.00,BKN,,0.00,548.0,WeatherDisplay:10.37,2013-04-24 13:57:00,
2013-04-24 10:02:00,58.9,49.1,29.94,SSE,161,4.2,6.0,70,0.00,SCT,,0.00,536.0,WeatherDisplay:10.37,2013-04-24 14:02:00,
2013-04-24 10:07:00,59.5,50.1,29.94,SE,134,4.5,4.6,71,0.00,SCT,,0.00,642.0,WeatherDisplay:10.37,2013-04-24 14:07:00,
2013-04-24 10:12:00,60.1,50.3,29.94,South,174,5.7,6.0,70,0.00,SCT,,0.00,677.0,WeatherDisplay:10.37,2013-04-24 14:12:00,
2013-04-24 10:17:00,60.2,50.0,29.94,ESE,111,8.0,9.0,69,0.00,SCT,,0.00,693.0,WeatherDisplay:10.37,2013-04-24 14:17:00,
2013-04-24 10:22:00,60.2,49.6,29.94,SE,131,9.3,13.8,68,0.00,SCT,,0.00,696.0,WeatherDisplay:10.37,2013-04-24 14:22:00,
2013-04-24 10:27:00,60.4,49.4,29.94,SE,144,5.9,9.2,67,0.00,SCT,,0.00,714.0,WeatherDisplay:10.37,2013-04-24 14:27:00,
2013-04-24 10:32:00,60.5,49.5,29.93,SE,129,3.4,10.4,67,0.00,SCT,,0.00,726.0,WeatherDisplay:10.37,2013-04-24 14:32:00,
2013-04-24 10:37:00,61.2,50.6,29.93,SE,142,8.8,16.5,68,0.00,SCT,,0.00,707.0,WeatherDisplay:10.37,2013-04-24 14:37:00,
2013-04-24 10:42:00,61.5,50.8,29.93,ESE,123,4.6,10.4,68,0.00,SCT,,0.00,765.0,WeatherDisplay:10.37,2013-04-24 14:42:00,
2013-04-24 10:47:00,61.8,49.9,29.93,SE,126,9.4,10.4,65,0.00,SCT,,0.00,795.0,WeatherDisplay:10.37,2013-04-24 14:47:00,
2013-04-24 10:52:00,62.6,51.1,29.93,SSW,196,7.9,12.0,66,0.00,SCT,,0.00,835.0,WeatherDisplay:10.37,2013-04-24 14:52:00,
2013-04-24 10:57:00,62.3,50.0,29.93,SSE,158,8.1,10.5,64,0.00,SCT,,0.00,791.0,WeatherDisplay:10.37,2013-04-24 14:57:00,
2013-04-24 11:02:00,62.9,50.5,29.93,SSE,157,9.1,12.0,64,0.00,SCT,,0.00,754.0,WeatherDisplay:10.37,2013-04-24 15:02:00,
2013-04-24 11:09:00,63.4,51.0,29.93,SSE,161,5.6,9.2,64,0.00,SCT,,0.00,824.0,WeatherDisplay:10.37,2013-04-24 15:09:00,
2013-04-24 11:14:00,63.9,51.1,29.92,SE,138,10.5,13.8,63,0.00,SCT,,0.00,814.0,WeatherDisplay:10.37,2013-04-24 15:14:00,
2013-04-24 11:19:00,64.7,52.2,29.92,SSE,157,7.4,9.2,64,0.00,SCT,,0.00,838.0,WeatherDisplay:10.37,2013-04-24 15:19:00,
2013-04-24 11:24:00,65.0,51.7,29.92,SSE,149,7.5,13.8,62,0.00,SCT,,0.00,800.0,WeatherDisplay:10.37,2013-04-24 15:24:00,
2013-04-24 11:29:00,64.8,51.0,29.92,ESE,115,5.9,9.2,61,0.00,SCT,,0.00,812.0,WeatherDisplay:10.37,2013-04-24 15:29:00,
2013-04-24 11:34:00,65.5,53.0,29.91,ESE,104,3.6,8.1,64,0.00,SCT,,0.00,823.0,WeatherDisplay:10.37,2013-04-24 15:34:00,
2013-04-24 11:39:00,65.8,53.3,29.91,SE,146,6.0,13.8,64,0.00,SCT,,0.00,823.0,WeatherDisplay:10.37,2013-04-24 15:39:00,
2013-04-24 11:44:00,66.3,52.4,29.91,SSE,161,8.1,11.5,61,0.00,SCT,,0.00,840.0,WeatherDisplay:10.37,2013-04-24 15:44:00,
2013-04-24 11:49:00,66.3,53.3,29.90,SSE,157,7.6,11.5,63,0.00,SCT,,0.00,842.0,WeatherDisplay:10.37,2013-04-24 15:49:00,
2013-04-24 11:54:00,66.9,53.5,29.90,South,182,15.6,19.6,62,0.00,SCT,,0.00,840.0,WeatherDisplay:10.37,2013-04-24 15:54:00,
2013-04-24 11:59:00,66.9,53.0,29.89,ESE,112,9.9,10.4,61,0.00,SCT,,0.00,844.0,WeatherDisplay:10.37,2013-04-24 15:59:00,
2013-04-24 12:04:00,67.4,52.6,29.88,SSE,153,14.8,16.1,59,0.00,FEW,,0.00,861.0,WeatherDisplay:10.37,2013-04-24 16:04:00,
2013-04-24 12:09:00,67.6,52.8,29.88,SE,130,10.7,13.8,59,0.00,FEW,,0.00,865.0,WeatherDisplay:10.37,2013-04-24 16:09:00,
2013-04-24 12:14:00,67.8,52.9,29.87,SSE,161,10.2,15.0,59,0.00,FEW,,0.00,877.0,WeatherDisplay:10.37,2013-04-24 16:14:00,
2013-04-24 12:19:00,67.8,52.5,29.87,SSE,149,17.4,19.6,58,0.00,FEW,,0.00,888.0,WeatherDisplay:10.37,2013-04-24 16:19:00,
2013-04-24 12:24:00,68.1,53.7,29.86,SE,145,11.9,16.5,60,0.00,FEW,,0.00,900.0,WeatherDisplay:10.37,2013-04-24 16:24:00,
2013-04-24 12:29:00,68.4,53.5,29.86,SSE,154,13.5,18.4,59,0.00,FEW,,0.00,846.0,WeatherDisplay:10.37,2013-04-24 16:29:00,
2013-04-24 12:34:00,68.9,54.0,29.86,SE,135,9.7,13.8,59,0.00,FEW,,0.00,909.0,WeatherDisplay:10.37,2013-04-24 16:34:00,
2013-04-24 12:39:00,69.4,54.9,29.85,ESE,107,10.2,15.0,60,0.00,FEW,,0.00,898.0,WeatherDisplay:10.37,2013-04-24 16:39:00,
2013-04-24 12:44:00,69.3,53.4,29.84,SSE,156,13.7,23.0,57,0.00,FEW,,0.00,911.0,WeatherDisplay:10.37,2013-04-24 16:44:00,
2013-04-24 12:49:00,69.8,55.7,29.84,ESE,117,8.2,10.5,61,0.00,FEW,,0.00,919.0,WeatherDisplay:10.37,2013-04-24 16:49:00,
2013-04-24 12:54:00,69.9,55.4,29.84,SE,126,12.5,13.8,60,0.00,FEW,,0.00,933.0,WeatherDisplay:10.37,2013-04-24 16:54:00,
2013-04-24 12:59:00,70.1,55.1,29.83,ESE,121,8.0,10.4,59,0.00,FEW,,0.00,907.0,WeatherDisplay:10.37,2013-04-24 16:59:00,
2013-04-24 13:04:00,70.6,55.6,29.83,SSE,159,9.7,15.0,59,0.00,FEW,,0.00,647.0,WeatherDisplay:10.37,2013-04-24 17:04:00,
2013-04-24 13:09:00,70.4,54.9,29.83,SE,125,10.9,16.1,58,0.00,FEW,,0.00,1000.0,WeatherDisplay:10.37,2013-04-24 17:09:00,
2013-04-24 13:14:00,70.8,55.8,29.83,SSE,147,6.5,10.4,59,0.00,FEW,,0.00,926.0,WeatherDisplay:10.37,2013-04-24 17:14:00,
2013-04-24 13:19:00,70.6,54.1,29.83,SE,142,12.2,19.5,56,0.00,FEW,,0.00,367.0,WeatherDisplay:10.37,2013-04-24 17:19:00,
2013-04-24 13:24:00,69.9,54.9,29.83,ESE,115,7.9,10.5,59,0.00,FEW,,0.00,886.0,WeatherDisplay:10.37,2013-04-24 17:24:00,
2013-04-24 13:29:00,70.4,54.0,29.82,South,175,14.7,21.0,56,0.00,FEW,,0.00,784.0,WeatherDisplay:10.37,2013-04-24 17:29:00,
2013-04-24 13:34:00,70.9,56.3,29.82,SSE,152,7.7,10.5,60,0.00,FEW,,0.00,967.0,WeatherDisplay:10.37,2013-04-24 17:34:00,
2013-04-24 13:39:00,71.6,56.0,29.81,SE,128,12.0,18.0,58,0.00,FEW,,0.00,958.0,WeatherDisplay:10.37,2013-04-24 17:39:00,
2013-04-24 13:44:00,71.5,55.0,29.81,SE,126,9.5,13.8,56,0.00,FEW,,0.00,668.0,WeatherDisplay:10.37,2013-04-24 17:44:00,
2013-04-24 13:49:00,71.8,55.7,29.81,ESE,113,11.3,11.3,57,0.00,FEW,,0.00,853.0,WeatherDisplay:10.37,2013-04-24 17:49:00,
2013-04-24 13:54:00,72.3,55.2,29.81,SE,145,14.4,19.6,55,0.00,FEW,,0.00,682.0,WeatherDisplay:10.37,2013-04-24 17:54:00,
2013-04-24 13:59:00,72.8,57.2,29.81,SSE,162,9.7,13.8,58,0.00,FEW,,0.00,886.0,WeatherDisplay:10.37,2013-04-24 17:59:00,
2013-04-24 14:04:00,73.3,55.6,29.81,SE,142,14.5,18.0,54,0.00,BKN,,0.00,951.0,WeatherDisplay:10.37,2013-04-24 18:04:00,
2013-04-24 14:09:00,73.5,55.8,29.80,SSE,155,8.3,16.1,54,0.00,BKN,,0.00,911.0,WeatherDisplay:10.37,2013-04-24 18:09:00,
2013-04-24 14:14:00,74.2,56.0,29.79,SE,142,16.7,18.4,53,0.00,BKN,,0.00,895.0,WeatherDisplay:10.37,2013-04-24 18:14:00,
2013-04-24 14:19:00,73.9,54.6,29.80,SSE,153,17.3,19.6,51,0.00,BKN,,0.00,635.0,WeatherDisplay:10.37,2013-04-24 18:19:00,
2013-04-24 14:24:00,74.0,55.3,29.80,South,181,9.3,12.0,52,0.00,BKN,,0.00,608.0,WeatherDisplay:10.37,2013-04-24 18:24:00,
2013-04-24 14:29:00,73.7,53.9,29.80,SSE,151,20.9,20.9,50,0.00,BKN,,0.00,591.0,WeatherDisplay:10.37,2013-04-24 18:29:00,
2013-04-24 14:34:00,73.7,53.9,29.81,SSE,153,17.5,19.5,50,0.00,BKN,,0.00,821.0,WeatherDisplay:10.37,2013-04-24 18:34:00,
2013-04-24 14:39:00,74.2,54.4,29.80,SSE,161,17.7,18.4,50,0.00,BKN,,0.00,933.0,WeatherDisplay:10.37,2013-04-24 18:39:00,
2013-04-24 14:44:00,75.1,55.2,29.79,SSE,167,12.3,16.5,50,0.00,BKN,,0.00,911.0,WeatherDisplay:10.37,2013-04-24 18:44:00,
2013-04-24 14:49:00,75.1,54.1,29.79,SSE,149,22.4,34.5,48,0.00,BKN,,0.00,448.0,WeatherDisplay:10.37,2013-04-24 18:49:00,
2013-04-24 14:54:00,74.4,54.0,29.79,SSW,204,11.2,15.0,49,0.00,BKN,,0.00,585.0,WeatherDisplay:10.37,2013-04-24 18:54:00,
2013-04-24 14:59:00,74.6,53.0,29.79,SW,222,20.2,25.3,47,0.00,BKN,,0.00,851.0,WeatherDisplay:10.37,2013-04-24 18:59:00,
2013-04-24 15:04:00,74.7,54.8,29.78,SSE,147,12.8,25.3,50,0.00,BKN,,0.00,791.0,WeatherDisplay:10.37,2013-04-24 19:04:00,
2013-04-24 15:09:00,75.3,55.4,29.78,SSW,212,8.6,19.6,50,0.00,BKN,,0.00,687.0,WeatherDisplay:10.37,2013-04-24 19:09:00,
2013-04-24 15:14:00,75.1,54.6,29.77,SW,231,14.4,16.5,49,0.00,BKN,,0.00,826.0,WeatherDisplay:10.37,2013-04-24 19:14:00,
2013-04-24 15:19:00,76.0,57.1,29.76,SSE,157,10.4,15.0,52,0.00,BKN,,0.00,717.0,WeatherDisplay:10.37,2013-04-24 19:19:00,
2013-04-24 15:24:00,76.0,54.3,29.76,SSE,151,18.3,23.0,47,0.00,BKN,,0.00,522.0,WeatherDisplay:10.37,2013-04-24 19:24:00,
2013-04-24 15:29:00,75.1,53.5,29.76,SE,142,19.4,23.0,47,0.00,BKN,,0.00,387.0,WeatherDisplay:10.37,2013-04-24 19:29:00,
2013-04-24 15:34:00,74.7,53.1,29.76,SE,139,22.2,24.2,47,0.00,BKN,,0.00,425.0,WeatherDisplay:10.37,2013-04-24 19:34:00,
2013-04-24 15:39:00,74.6,53.6,29.75,South,182,15.8,19.6,48,0.00,BKN,,0.00,399.0,WeatherDisplay:10.37,2013-04-24 19:39:00,
2013-04-24 15:44:00,74.4,53.4,29.75,SW,220,14.6,30.0,48,0.00,BKN,,0.00,394.0,WeatherDisplay:10.37,2013-04-24 19:44:00,
2013-04-24 15:49:00,74.4,54.0,29.75,SW,228,11.2,18.4,49,0.00,BKN,,0.00,360.0,WeatherDisplay:10.37,2013-04-24 19:49:00,
2013-04-24 15:54:00,74.4,54.0,29.75,SSE,161,10.9,23.0,49,0.00,BKN,,0.00,294.0,WeatherDisplay:10.37,2013-04-24 19:54:00,
2013-04-24 15:59:00,74.4,55.1,29.74,SE,144,5.3,9.0,51,0.00,BKN,,0.00,236.0,WeatherDisplay:10.37,2013-04-24 19:59:00,
2013-04-24 16:04:00,74.2,53.8,29.74,SE,133,11.7,15.0,49,0.00,BKN,,0.00,239.0,WeatherDisplay:10.37,2013-04-24 20:04:00,
2013-04-24 16:09:00,74.2,53.2,29.73,SSE,164,19.5,29.9,48,0.00,BKN,,0.00,294.0,WeatherDisplay:10.37,2013-04-24 20:09:00,
2013-04-24 16:14:00,74.4,53.4,29.73,SSE,159,12.5,19.6,48,0.00,BKN,,0.00,330.0,WeatherDisplay:10.37,2013-04-24 20:14:00,
2013-04-24 16:19:00,74.7,53.7,29.73,SSE,167,11.5,16.5,48,0.00,BKN,,0.00,359.0,WeatherDisplay:10.37,2013-04-24 20:19:00,
2013-04-24 16:24:00,75.1,53.5,29.73,SW,217,18.3,24.2,47,0.00,BKN,,0.00,360.0,WeatherDisplay:10.37,2013-04-24 20:24:00,
2013-04-24 16:29:00,75.3,53.7,29.73,South,190,20.3,23.0,47,0.00,BKN,,0.00,320.0,WeatherDisplay:10.37,2013-04-24 20:29:00,
2013-04-24 16:34:00,75.4,53.8,29.72,SE,139,8.9,24.2,47,0.00,BKN,,0.00,559.0,WeatherDisplay:10.37,2013-04-24 20:34:00,
2013-04-24 16:39:00,75.8,52.9,29.71,South,171,18.8,31.1,45,0.00,BKN,,0.00,323.0,WeatherDisplay:10.37,2013-04-24 20:39:00,
2013-04-24 16:44:00,76.0,53.1,29.71,SW,236,16.6,24.2,45,0.00,BKN,,0.00,642.0,WeatherDisplay:10.37,2013-04-24 20:44:00,
2013-04-24 16:49:00,76.3,54.0,29.70,South,180,9.8,18.4,46,0.00,BKN,,0.00,490.0,WeatherDisplay:10.37,2013-04-24 20:49:00,
2013-04-24 16:54:00,76.5,53.0,29.70,South,178,19.1,21.0,44,0.00,BKN,,0.00,497.0,WeatherDisplay:10.37,2013-04-24 20:54:00,
2013-04-24 16:59:00,76.1,52.6,29.70,SSW,200,19.6,25.3,44,0.00,BKN,,0.00,448.0,WeatherDisplay:10.37,2013-04-24 20:59:00,
2013-04-24 17:04:00,76.1,52.6,29.70,SSE,165,13.3,16.1,44,0.00,OVC,,0.00,401.0,WeatherDisplay:10.37,2013-04-24 21:04:00,
2013-04-24 17:09:00,76.1,52.6,29.69,West,265,21.2,25.3,44,0.00,OVC,,0.00,629.0,WeatherDisplay:10.37,2013-04-24 21:09:00,
2013-04-24 17:14:00,76.5,52.3,29.69,SE,143,24.5,27.0,43,0.00,OVC,,0.00,461.0,WeatherDisplay:10.37,2013-04-24 21:14:00,
2013-04-24 17:19:00,76.5,52.3,29.69,SSE,153,13.0,20.7,43,0.00,OVC,,0.00,306.0,WeatherDisplay:10.37,2013-04-24 21:19:00,
2013-04-24 17:24:00,76.3,52.2,29.69,SSE,153,22.2,24.2,43,0.00,OVC,,0.00,306.0,WeatherDisplay:10.37,2013-04-24 21:24:00,
2013-04-24 17:29:00,76.0,51.9,29.70,SSE,152,21.8,21.8,43,0.00,OVC,,0.00,209.0,WeatherDisplay:10.37,2013-04-24 21:29:00,
2013-04-24 17:34:00,76.0,51.9,29.70,SW,219,19.9,25.5,43,0.00,OVC,,0.00,257.0,WeatherDisplay:10.37,2013-04-24 21:34:00,
2013-04-24 17:39:00,75.8,52.3,29.71,SSE,166,16.2,16.2,44,0.00,OVC,,0.00,183.0,WeatherDisplay:10.37,2013-04-24 21:39:00,
2013-04-24 17:44:00,75.4,52.6,29.71,SSE,165,6.7,16.1,45,0.00,OVC,,0.00,192.0,WeatherDisplay:10.37,2013-04-24 21:44:00,
2013-04-24 17:49:00,75.4,52.6,29.71,SW,230,17.0,19.6,45,0.00,OVC,,0.00,193.0,WeatherDisplay:10.37,2013-04-24 21:49:00,
2013-04-24 17:54:00,75.3,52.5,29.72,SW,227,10.0,13.8,45,0.00,OVC,,0.00,188.0,WeatherDisplay:10.37,2013-04-24 21:54:00,
2013-04-24 17:59:00,75.3,52.5,29.73,SSW,205,18.3,24.0,45,0.00,OVC,,0.00,146.0,WeatherDisplay:10.37,2013-04-24 21:59:00,
2013-04-24 18:04:00,75.1,51.7,29.73,SSW,213,13.0,16.1,44,0.00,BKN,,0.00,86.0,WeatherDisplay:10.37,2013-04-24 22:04:00,
2013-04-24 18:09:00,74.9,51.5,29.74,SW,227,14.2,19.5,44,0.00,BKN,,0.00,53.0,WeatherDisplay:10.37,2013-04-24 22:09:00,
2013-04-24 18:14:00,74.7,52.5,29.73,SW,219,6.1,8.1,46,0.00,BKN,,0.00,127.0,WeatherDisplay:10.37,2013-04-24 22:14:00,
2013-04-24 18:19:00,74.9,52.7,29.73,SW,225,6.7,9.0,46,0.00,BKN,,0.00,267.0,WeatherDisplay:10.37,2013-04-24 22:19:00,
2013-04-24 18:24:00,75.3,52.5,29.74,SW,234,11.1,13.5,45,0.00,BKN,,0.00,171.0,WeatherDisplay:10.37,2013-04-24 22:24:00,
2013-04-24 18:29:00,75.3,52.5,29.75,WNW,292,10.5,16.5,45,0.00,BKN,,0.00,77.0,WeatherDisplay:10.37,2013-04-24 22:29:00,
2013-04-24 18:34:00,74.6,54.2,29.75,WNW,286,9.2,9.2,49,0.00,BKN,,0.00,53.0,WeatherDisplay:10.37,2013-04-24 22:34:00,
2013-04-24 18:39:00,73.5,54.8,29.75,NW,323,7.3,9.2,52,0.00,BKN,,0.00,25.0,WeatherDisplay:10.37,2013-04-24 22:39:00,
2013-04-24 18:44:00,72.5,54.4,29.76,NW,319,11.2,11.2,53,0.00,BKN,,0.00,7.0,WeatherDisplay:10.37,2013-04-24 22:44:00,
2013-04-24 18:49:00,72.0,54.4,29.78,NW,314,10.4,13.5,54,0.00,BKN,,0.00,5.0,WeatherDisplay:10.37,2013-04-24 22:49:00,
2013-04-24 18:54:00,69.6,57.3,29.78,WNW,302,21.1,21.1,65,0.00,BKN,,0.00,12.0,WeatherDisplay:10.37,2013-04-24 22:54:00,
2013-04-24 18:59:00,67.1,57.8,29.78,WNW,292,9.4,16.5,72,0.00,BKN,,0.00,11.0,WeatherDisplay:10.37,2013-04-24 22:59:00,
2013-04-24 19:04:00,66.0,58.2,29.78,WNW,287,4.3,8.1,76,0.00,BKN,,0.00,7.0,WeatherDisplay:10.37,2013-04-24 23:04:00,
2013-04-24 19:09:00,65.6,58.2,29.77,NW,319,6.6,9.0,77,0.00,BKN,,0.00,0.0,WeatherDisplay:10.37,2013-04-24 23:09:00,
2013-04-24 19:14:00,65.3,58.3,29.78,WNW,291,5.2,8.1,78,0.00,BKN,,0.00,0.0,WeatherDisplay:10.37,2013-04-24 23:14:00,
2013-04-24 19:19:00,65.2,58.5,29.79,WSW,248,2.4,3.5,79,0.00,BKN,,0.01,0.0,WeatherDisplay:10.37,2013-04-24 23:19:00,
2013-04-24 19:24:00,65.0,58.7,29.79,WNW,303,2.0,4.6,80,0.01,RA,,0.01,0.0,WeatherDisplay:10.37,2013-04-24 23:24:00,
2013-04-24 19:29:00,64.7,58.7,29.80,West,274,0.5,3.5,81,0.01,RA,,0.01,0.0,WeatherDisplay:10.37,2013-04-24 23:29:00,
2013-04-24 19:34:00,64.5,58.9,29.81,West,274,0.2,1.5,82,0.02,RA,,0.02,0.0,WeatherDisplay:10.37,2013-04-24 23:34:00,
2013-04-24 19:39:00,64.2,58.9,29.81,WSW,257,3.5,7.5,83,0.03,RA,,0.03,0.0,WeatherDisplay:10.37,2013-04-24 23:39:00,
2013-04-24 19:44:00,63.9,58.6,29.81,WSW,256,0.4,1.5,83,0.03,RA,,0.03,0.0,WeatherDisplay:10.37,2013-04-24 23:44:00,
2013-04-24 19:49:00,63.7,58.4,29.81,WSW,256,0.0,0.0,83,0.04,RA,,0.04,0.0,WeatherDisplay:10.37,2013-04-24 23:49:00,
2013-04-24 19:54:00,63.5,58.6,29.80,WSW,256,3.8,3.8,84,0.04,RA,,0.04,0.0,WeatherDisplay:10.37,2013-04-24 23:54:00,
2013-04-24 19:59:00,63.2,58.6,29.81,WSW,256,0.0,0.0,85,0.04,BKN,,0.04,0.0,WeatherDisplay:10.37,2013-04-24 23:59:00,
2013-04-24 20:04:00,63.1,58.8,29.81,WSW,256,0.0,0.0,86,0.04,OVC,,0.04,0.0,WeatherDisplay:10.37,2013-04-25 00:04:00,
2013-04-24 20:09:00,62.7,58.5,29.82,SW,235,4.0,4.5,86,0.04,OVC,,0.04,0.0,WeatherDisplay:10.37,2013-04-25 00:09:00,
2013-04-24 20:14:00,62.6,59.0,29.82,SW,222,2.0,4.6,88,0.04,OVC,,0.04,0.0,WeatherDisplay:10.37,2013-04-25 00:14:00,
2013-04-24 20:19:00,62.6,59.0,29.82,SW,221,0.7,4.6,88,0.04,OVC,,0.04,0.0,WeatherDisplay:10.37,2013-04-25 00:19:00,
2013-04-24 20:24:00,62.6,59.3,29.82,SW,221,0.0,0.0,89,0.03,OVC,,0.04,0.0,WeatherDisplay:10.37,2013-04-25 00:24:00,
2013-04-24 20:29:00,62.4,59.1,29.82,SSW,205,1.3,5.8,89,0.03,OVC,,0.04,0.0,WeatherDisplay:10.37,2013-04-25 00:29:00,
2013-04-24 20:34:00,62.4,59.1,29.82,SSW,205,0.4,1.5,89,0.02,OVC,,0.04,0.0,WeatherDisplay:10.37,2013-04-25 00:34:00,
2013-04-24 20:39:00,62.4,59.1,29.82,SSW,205,2.4,3.0,89,0.01,OVC,,0.04,0.0,WeatherDisplay:10.37,2013-04-25 00:39:00,
2013-04-24 20:45:00,62.3,59.3,29.81,SSW,200,0.1,4.6,90,0.01,OVC,,0.04,0.0,WeatherDisplay:10.37,2013-04-25 00:45:00,
2013-04-24 20:50:00,62.1,59.1,29.82,SSW,200,0.3,1.5,90,0.00,OVC,,0.04,0.0,WeatherDisplay:10.37,2013-04-25 00:50:00,
2013-04-24 20:55:00,62.0,59.0,29.82,SSW,200,0.0,0.0,90,0.00,OVC,,0.04,0.0,WeatherDisplay:10.37,2013-04-25 00:55:00,
2013-04-24 21:00:00,62.0,59.0,29.82,SSW,200,0.0,0.0,90,0.00,OVC,,0.04,0.0,WeatherDisplay:10.37,2013-04-25 01:00:00,
2013-04-24 21:05:00,61.8,58.8,29.82,SSW,200,0.0,0.0,90,0.00,OVC,,0.04,0.0,WeatherDisplay:10.37,2013-04-25 01:05:00,
2013-04-24 21:10:00,61.6,58.6,29.82,SSW,200,0.0,0.0,90,0.00,OVC,,0.04,0.0,WeatherDisplay:10.37,2013-04-25 01:10:00,
2013-04-24 21:15:00,61.5,58.5,29.82,SSW,200,0.0,0.0,90,0.00,OVC,,0.04,0.0,WeatherDisplay:10.37,2013-04-25 01:15:00,
2013-04-24 21:20:00,60.9,57.9,29.82,SSW,200,0.0,0.0,90,0.00,OVC,,0.04,0.0,WeatherDisplay:10.37,2013-04-25 01:20:00,
2013-04-24 21:25:00,60.7,58.1,29.83,SSW,200,0.0,0.0,91,0.00,OVC,,0.04,0.0,WeatherDisplay:10.37,2013-04-25 01:25:00,
2013-04-24 21:30:00,60.4,57.8,29.83,SSW,200,0.0,0.0,91,0.00,OVC,,0.04,0.0,WeatherDisplay:10.37,2013-04-25 01:30:00,
2013-04-24 21:35:00,59.9,57.3,29.84,SSW,200,0.0,0.0,91,0.00,OVC,,0.04,0.0,WeatherDisplay:10.37,2013-04-25 01:35:00,
2013-04-24 21:40:00,59.8,57.2,29.84,SSW,200,0.0,0.0,91,0.00,OVC,,0.04,0.0,WeatherDisplay:10.37,2013-04-25 01:40:00,
2013-04-24 21:45:00,59.9,57.6,29.85,SSW,200,0.0,0.0,92,0.00,OVC,,0.04,0.0,WeatherDisplay:10.37,2013-04-25 01:45:00,
2013-04-24 21:50:00,60.2,57.9,29.86,SSW,200,0.0,3.5,92,0.00,OVC,,0.04,0.0,WeatherDisplay:10.37,2013-04-25 01:50:00,
2013-04-24 21:55:00,60.5,58.5,29.87,WNW,283,2.1,6.0,93,0.00,OVC,,0.04,0.0,WeatherDisplay:10.37,2013-04-25 01:55:00,
2013-04-24 22:00:00,60.7,58.4,29.87,NW,306,5.1,10.4,92,0.00,OVC,,0.04,0.0,WeatherDisplay:10.37,2013-04-25 02:00:00,
2013-04-24 22:05:00,61.0,58.4,29.88,WNW,292,10.5,10.5,91,0.00,BKN,,0.04,0.0,WeatherDisplay:10.37,2013-04-25 02:05:00,
2013-04-24 22:10:00,61.6,57.7,29.88,NW,307,14.5,23.0,87,0.00,BKN,,0.04,0.0,WeatherDisplay:10.37,2013-04-25 02:10:00,
2013-04-24 22:15:00,61.8,55.2,29.90,NW,309,22.0,25.3,79,0.01,RA,,0.05,0.0,WeatherDisplay:10.37,2013-04-25 02:15:00,
2013-04-24 22:20:00,61.6,53.6,29.90,WNW,289,26.6,28.8,75,0.01,RA,,0.05,0.0,WeatherDisplay:10.37,2013-04-25 02:20:00,
2013-04-24 22:25:00,61.6,51.7,29.91,WNW,296,27.7,30.0,70,0.01,BKN,,0.05,0.0,WeatherDisplay:10.37,2013-04-25 02:25:00,
2013-04-24 22:30:00,61.2,50.6,29.92,NW,319,24.5,26.5,68,0.01,BKN,,0.05,0.0,WeatherDisplay:10.37,2013-04-25 02:30:00,
2013-04-24 22:35:00,60.9,49.9,29.92,WNW,299,21.1,26.5,67,0.01,BKN,,0.05,0.0,WeatherDisplay:10.37,2013-04-25 02:35:00,
2013-04-24 22:40:00,60.7,48.9,29.92,NNW,338,23.0,27.0,65,0.01,BKN,,0.05,0.0,WeatherDisplay:10.37,2013-04-25 02:40:00,
2013-04-24 22:45:00,60.5,48.7,29.93,NW,312,11.1,24.2,65,0.01,BKN,,0.05,0.0,WeatherDisplay:10.37,2013-04-25 02:45:00,
2013-04-24 22:50:00,60.4,49.0,29.92,NW,313,14.0,16.1,66,0.01,BKN,,0.05,0.0,WeatherDisplay:10.37,2013-04-25 02:50:00,
2013-04-24 22:55:00,59.9,48.9,29.93,NNW,340,18.9,21.0,67,0.01,BKN,,0.05,0.0,WeatherDisplay:10.37,2013-04-25 02:55:00,
2013-04-24 23:00:00,59.3,47.9,29.94,NNW,342,24.4,26.5,66,0.01,BKN,,0.05,0.0,WeatherDisplay:10.37,2013-04-25 03:00:00,
2013-04-24 23:05:00,58.9,47.6,29.95,NW,312,15.8,22.5,66,0.01,BKN,,0.05,0.0,WeatherDisplay:10.37,2013-04-25 03:05:00,
2013-04-24 23:10:00,58.4,46.7,29.95,WNW,303,17.1,23.0,65,0.01,BKN,,0.05,0.0,WeatherDisplay:10.37,2013-04-25 03:10:00,
2013-04-24 23:15:00,58.1,46.4,29.95,WNW,288,23.6,25.5,65,0.00,BKN,,0.05,0.0,WeatherDisplay:10.37,2013-04-25 03:15:00,
2013-04-24 23:20:00,57.8,45.3,29.97,NW,307,17.5,23.0,63,0.00,BKN,,0.05,0.0,WeatherDisplay:10.37,2013-04-25 03:20:00,
2013-04-24 23:25:00,57.3,44.4,29.97,West,274,21.5,24.2,62,0.00,BKN,,0.05,0.0,WeatherDisplay:10.37,2013-04-25 03:25:00,
2013-04-24 23:30:00,56.7,43.4,29.98,WNW,300,23.0,29.9,61,0.00,BKN,,0.05,0.0,WeatherDisplay:10.37,2013-04-25 03:30:00,
2013-04-24 23:35:00,56.2,42.9,29.98,West,279,27.5,27.5,61,0.00,BKN,,0.05,0.0,WeatherDisplay:10.37,2013-04-25 03:35:00,
2013-04-24 23:40:00,55.7,42.9,29.99,NNW,342,12.7,29.9,62,0.00,BKN,,0.05,0.0,WeatherDisplay:10.37,2013-04-25 03:40:00,
2013-04-24 23:45:00,55.3,42.5,29.99,NW,315,15.4,27.0,62,0.00,BKN,,0.05,0.0,WeatherDisplay:10.37,2013-04-25 03:45:00,
2013-04-24 23:50:00,55.1,41.9,30.00,NNW,341,20.5,23.0,61,0.00,BKN,,0.05,0.0,WeatherDisplay:10.37,2013-04-25 03:50:00,
2013-04-24 23:55:00,55.0,40.9,30.01,NW,320,19.1,19.1,59,0.00,BKN,,0.05,0.0,WeatherDisplay:10.37,2013-04-25 03:55:00,